Zurück zum Katalog

STARLINK-31095

AktivKommunikationVLEO
NORAD 58683·PAYLOAD·🇺🇸 United States

Gestartet Dec 29, 2023 von Cape Canaveral Space Force Station

Loading…

Nächste Überflüge (nächste 24 Stunden)

TLE

AktuellSource: CelesTrak SupGP

Epoche: Sep 14, 2026, 22:28 UTC

1 58683C 23211S   26257.93659722  .00039390  00000+0  14270-2 0  2570
2 58683  43.0024  96.8225 0001267 268.6212  99.8179 15.27552682    17

Verfolge STARLINK-31095 in Echtzeit mit AllMySat

Download on the App Store